Theta_e
316 316 315 314 312 311 318 322 314 328 328 313 315 310 314 311 313 316 313 313 309 309 310 308 308 308 310 314 312 305 307 302 297 302 308 310 303 298 299 293 294 295 296 302
316 316 314 313 311 311 309 317 320 328 324 309 309 313 315 314 312 313 313 312 314 312 308 305 309 311 314 314 311 304 306 301 292 297 301 307 303 304 307 301 297 294 293 300
315 315 314 312 312 311 312 320 316 322 322 318 312 311 312 311 316 313 314 312 313 311 308 310 308 310 313 314 312 324 311 298 296 292 298 302 302 305 304 299 294 294 297 302
315 315 314 312 312 311 314 325 319 319 313 314 314 314 315 312 311 315 315 313 312 310 304 308 308 312 312 313 319 311 306 298 299 303 306 306 305 305 305 299 299 295 298 298
315 314 314 313 312 311 325 319 316 318 315 315 313 311 311 311 312 312 312 312 313 313 307 308 307 308 308 307 310 306 306 300 303 301 306 306 304 306 306 305 305 302 300 299
314 314 314 313 312 313 319 325 325 319 312 313 311 311 313 314 316 317 317 315 312 310 313 314 313 311 310 306 304 304 303 300 299 297 304 304 299 304 305 303 304 301 297 301
313 314 313 313 313 313 313 320 321 317 311 314 314 315 316 315 316 314 316 316 313 315 317 316 314 312 310 310 308 307 302 301 301 297 300 292 303 309 310 306 307 309 312 317
312 312 313 313 313 314 311 316 318 318 310 313 313 315 315 317 317 315 314 316 316 317 314 307 305 304 305 308 311 310 308 303 299 296 295 301 306 308 307 304 309 316 315 317
311 311 311 312 313 313 313 313 319 320 313 310 316 312 314 312 312 313 315 319 320 314 311 307 300 299 304 305 309 309 307 306 301 298 295 294 304 311 313 310 303 315 315 313
310 311 311 311 312 312 311 312 314 317 312 316 317 312 312 317 315 312 316 316 316 317 309 304 302 301 308 302 303 303 303 303 300 299 297 301 311 313 313 298 303 314 315 313
309 310 310 311 311 312 310 309 313 313 311 313 315 317 314 315 315 311 316 313 315 312 307 307 306 304 305 304 307 306 306 304 302 302 298 298 315 313 306 311 313 314 315 315
309 310 310 310 310 311 312 307 313 314 313 316 321 321 321 319 317 315 316 314 314 316 312 312 311 306 308 306 302 312 304 307 304 306 306 314 314 312 314 315 313 314 314 315
310 310 310 311 311 310 309 305 308 309 307 307 308 308 316 318 318 319 312 316 319 317 319 314 313 307 311 305 306 308 311 315 307 307 309 314 315 315 317 318 317 317 317 315
310 310 310 311 310 310 309 303 307 306 308 304 309 319 316 319 317 319 320 319 319 318 317 313 311 308 313 307 308 307 310 311 310 309 311 314 318 318 318 319 319 319 318 317
310 310 310 310 309 310 308 307 306 306 302 300 302 308 311 316 317 316 319 317 316 313 311 311 309 313 311 311 309 306 311 309 307 307 314 315 314 317 319 318 317 316 315 316
310 311 310 310 310 309 304 301 308 308 303 303 299 312 312 315 316 315 319 319 318 315 312 311 314 317 312 307 304 311 314 315 316 313 316 316 317 319 320 318 318 318 316 316
310 310 310 310 309 306 299 299 305 307 304 302 301 303 312 315 315 313 316 319 317 316 314 312 312 313 312 308 305 312 316 318 318 319 319 316 318 315 319 319 319 319 317 317
310 311 310 310 309 307 301 306 306 307 303 308 299 300 306 314 309 307 315 312 316 316 314 315 312 312 312 306 312 317 319 320 320 319 320 317 317 317 317 318 317 315 314 315
309 310 310 306 303 300 305 314 310 315 309 300 300 298 298 313 312 311 311 313 309 317 311 311 313 310 307 312 314 316 319 317 317 320 320 318 316 316 316 316 315 312 312 315
308 306 300 297 306 314 315 310 304 304 306 304 297 304 300 307 308 308 308 312 309 305 309 315 309 308 315 318 319 321 320 322 320 316 314 315 316 315 314 313 313 313 315 315
303 300 299 306 312 307 301 296 295 297 294 298 298 300 298 306 305 304 309 306 309 302 307 307 306 306 311 317 319 324 323 322 321 319 318 316 315 313 313 313 315 316 319 319
302 300 304 304 302 297 290 290 294 294 293 301 298 300 301 308 313 305 307 305 306 301 313 306 303 310 321 320 319 319 325 323 321 320 317 317 317 315 314 315 315 319 320 322
303 298 295 294 295 287 287 286 292 294 300 303 304 301 303 307 310 304 304 301 301 309 305 305 307 318 320 321 321 320 321 320 319 318 318 317 316 319 317 315 321 322 322 321
293 289 285 288 286 288 293 292 296 301 302 304 304 302 303 305 302 303 298 301 303 300 299 304 315 317 318 318 319 317 317 318 317 316 316 318 317 318 321 321 323 322 321 322
290 289 285 287 294 296 297 298 299 301 303 303 303 305 303 303 300 300 300 297 295 300 300 310 318 320 319 318 318 318 318 317 315 316 317 317 321 321 321 324 324 323 321 319
291 290 288 292 292 293 296 296 298 303 302 305 307 301 297 297 300 296 296 296 296 302 307 319 321 320 321 320 318 318 318 317 318 318 318 320 322 321 322 324 324 324 319 317
289 289 295 294 294 294 296 300 300 304 300 295 297 290 292 299 296 296 302 299 302 304 307 319 321 320 318 319 319 319 320 319 319 319 320 322 324 324 323 318 321 320 319 318
Wind_Speed
26 27 29 29 29 36 9 5 4 3 5 1 4 7 9 2 5 3 4 4 5 7 10 9 9 7 5 7 8 4 6 3 6 9 6 6 3 2 1 6 9 3 5 6
25 27 28 27 24 21 7 6 5 7 4 3 6 9 12 3 2 5 7 6 8 7 6 6 8 8 7 8 6 3 6 4 5 12 8 9 4 4 5 6 5 5 4 5
25 26 28 29 26 17 4 4 5 6 2 4 7 11 8 12 7 2 2 5 8 6 6 7 5 4 4 6 7 6 5 1 6 7 9 5 9 10 6 5 4 6 1 2
23 25 27 30 33 30 3 3 4 4 6 9 16 14 9 14 11 3 4 3 5 7 4 8 6 7 4 8 9 5 3 3 5 8 9 8 9 10 8 5 8 3 10 5
22 23 26 29 34 38 2 4 5 7 8 9 12 10 7 10 13 10 4 1 4 8 5 6 6 9 7 4 3 3 2 5 4 5 8 9 6 9 10 9 8 7 6 7
21 22 24 26 28 24 5 6 6 3 7 8 8 8 16 11 6 7 7 7 6 6 7 8 8 7 6 5 5 7 5 3 2 5 7 9 8 10 7 3 7 5 6 6
21 21 22 22 22 16 4 4 5 4 6 8 10 19 19 17 7 4 10 9 5 3 5 6 8 9 9 8 10 9 7 3 2 4 4 6 11 9 7 4 5 7 9 14
21 21 21 21 20 19 4 4 4 4 6 9 13 17 18 16 12 7 8 9 7 8 2 3 5 6 7 12 17 12 10 4 1 3 2 8 11 3 6 4 7 12 13 14
19 20 21 21 20 19 7 6 5 5 4 7 10 14 15 10 8 9 11 9 8 3 3 3 3 4 6 6 8 7 6 6 5 1 2 4 4 4 7 5 4 7 10 10
18 19 20 20 20 18 9 7 6 4 5 10 6 5 11 11 9 5 11 9 4 7 3 3 5 7 7 7 7 5 3 2 6 3 4 6 4 6 5 2 4 7 9 7
16 17 18 19 20 19 11 9 11 3 6 14 18 17 13 11 7 4 9 9 6 1 2 2 5 4 6 6 7 6 6 6 4 3 3 3 5 4 4 5 6 8 8 9
15 15 16 16 17 17 14 5 10 10 6 8 15 15 19 17 18 11 6 8 10 5 4 2 2 4 4 5 5 6 1 6 6 7 6 3 6 6 6 6 4 6 8 7
14 15 15 16 15 15 11 7 7 6 5 10 11 12 14 16 22 17 9 6 5 6 5 4 3 2 3 3 4 6 10 7 2 3 1 6 6 4 5 9 8 7 7 4
14 14 15 16 15 14 13 6 6 5 6 7 7 11 9 19 18 17 20 19 14 13 6 4 4 3 3 4 5 2 4 4 1 1 1 2 2 8 7 7 8 8 7 4
15 13 14 15 15 14 11 9 6 7 5 6 10 22 26 17 17 22 20 20 15 8 6 5 4 2 3 3 4 5 3 3 2 4 2 5 4 5 7 7 5 4 4 6
14 15 14 14 12 12 6 3 5 6 4 5 5 6 12 16 15 13 11 7 8 8 9 6 5 5 5 4 6 9 11 9 4 2 3 6 5 7 7 4 3 7 7 5
14 12 12 12 10 6 5 5 4 9 4 3 6 6 9 21 17 6 8 11 6 5 6 8 8 5 3 6 13 8 9 4 4 5 6 6 3 1 7 9 7 6 4 5
14 13 13 14 12 13 8 9 18 5 3 3 4 6 6 11 4 7 6 6 7 7 7 4 9 8 8 9 8 4 5 4 1 4 2 5 7 7 8 7 6 7 7 6
12 13 15 7 5 4 2 9 11 2 3 3 3 4 5 8 7 5 7 8 9 5 12 10 4 7 8 9 7 5 7 5 4 3 5 7 6 3 6 6 9 7 6 6
10 6 4 4 1 11 4 2 3 3 4 4 5 5 5 8 6 4 7 4 5 5 9 5 13 11 8 8 7 4 3 10 8 4 4 7 8 9 8 7 5 4 4 5
2 3 3 6 6 2 2 4 5 4 4 6 6 13 10 1 2 3 3 4 5 6 7 10 6 9 14 14 8 7 7 8 7 9 9 8 8 7 6 4 4 3 7 4
1 2 5 5 3 2 4 5 5 7 7 8 8 9 10 3 2 1 3 5 4 5 0 10 13 4 7 12 17 13 9 10 10 11 9 8 7 5 2 2 3 4 2 4
2 3 4 3 3 5 6 5 6 6 6 6 8 7 5 5 3 1 2 6 5 9 4 4 10 6 5 7 12 12 11 12 11 10 9 7 4 7 5 2 4 5 5 5
1 2 5 4 5 6 5 10 8 8 9 11 7 2 5 4 4 2 3 2 6 2 3 1 3 10 10 10 10 14 11 10 10 9 7 8 7 4 4 4 3 5 5 6
3 3 6 7 6 5 7 7 9 7 8 9 4 2 4 4 4 3 1 3 3 5 5 1 7 9 9 9 9 9 9 8 8 7 7 7 5 4 3 2 2 4 7 5
3 6 6 8 8 10 4 4 7 3 6 7 2 3 1 1 3 5 6 5 7 2 8 2 8 10 8 10 11 10 9 8 7 6 6 2 4 1 2 5 4 7 6 3
5 7 9 12 9 10 8 3 3 5 4 5 5 2 2 4 3 5 2 6 6 9 11 5 7 12 13 12 10 8 8 7 6 5 3 1 2 2 6 6 6 6 5 6
Wind_Direction
346 347 348 349 351 341 12 317 290 233 175 185 229 259 270 242 307 67 266 324 296 2 8 2 3 69 85 41 40 29 15 293 328 295 274 63 58 327 0 114 299 282 140 252
347 347 347 348 353 5 320 319 270 287 165 238 275 297 323 116 313 342 352 348 11 18 359 5 0 5 117 82 85 83 345 344 355 340 357 9 340 54 14 5 35 305 55 259
348 349 347 345 345 348 306 288 304 324 282 224 312 293 330 333 151 157 310 357 342 329 300 292 196 294 111 145 115 138 106 242 197 221 251 316 344 344 6 51 19 290 162 333
351 351 351 347 343 340 207 227 323 36 324 340 324 327 351 327 326 207 179 102 289 295 294 314 325 352 347 71 166 175 156 246 287 315 326 322 309 305 306 308 261 269 286 302
353 354 354 353 348 337 247 7 354 344 293 300 313 294 282 266 282 299 349 297 339 353 4 359 355 13 11 49 229 301 299 280 322 312 309 325 319 321 315 276 265 251 251 292
351 353 356 358 359 347 350 356 340 286 286 307 306 292 322 335 343 340 3 347 321 337 35 1 338 325 312 316 318 304 298 274 353 290 308 324 325 266 275 46 44 45 11 265
349 352 355 359 2 14 301 306 298 294 294 323 313 323 318 328 334 13 331 340 355 308 52 2 331 315 297 287 270 232 252 259 185 243 333 285 246 270 255 130 24 9 54 40
349 351 353 355 354 356 311 302 308 311 299 324 307 346 335 327 329 302 289 277 276 303 342 24 304 303 286 260 245 240 208 198 197 137 236 274 295 311 39 66 54 39 48 36
347 348 350 353 352 353 319 286 257 275 301 244 9 322 305 308 322 318 307 288 211 188 89 36 256 253 274 276 327 175 113 88 111 314 212 274 270 96 56 44 59 25 59 42
346 346 348 349 350 349 339 283 306 279 278 267 315 316 321 308 324 309 310 328 319 109 141 221 244 257 265 263 264 243 157 171 175 249 232 256 349 28 31 74 201 50 57 57
344 345 346 348 350 350 349 288 283 270 284 288 276 278 299 306 309 284 317 344 325 65 154 204 228 251 254 281 260 234 192 162 188 180 218 282 345 19 70 186 63 64 46 44
338 339 340 344 348 349 346 281 353 333 259 278 326 287 270 266 273 288 298 287 306 288 23 329 315 292 298 269 276 294 185 157 188 145 187 126 45 62 51 94 113 84 76 44
330 332 333 337 339 344 348 299 318 301 265 278 248 252 270 230 231 233 258 278 258 290 294 288 223 216 345 287 282 19 350 27 103 78 154 94 42 357 35 58 76 66 62 47
320 322 326 331 333 332 329 294 303 294 279 271 278 298 290 307 307 260 227 245 266 277 296 285 260 189 211 274 281 286 221 11 274 311 33 42 47 88 70 47 40 32 21 26
318 315 317 324 327 327 304 264 244 246 277 302 312 315 282 273 265 260 261 218 229 243 258 252 248 241 11 294 310 271 293 266 171 220 80 113 125 104 76 62 40 352 1 31
310 311 307 311 321 331 311 302 88 62 9 270 276 316 280 290 283 267 252 205 237 215 221 234 247 243 180 229 231 238 242 258 33 360 112 127 120 121 97 74 356 48 22 8
310 305 301 298 301 300 265 285 309 317 344 264 285 260 225 234 249 245 250 201 207 215 234 237 245 240 237 257 253 263 283 334 57 55 44 358 314 224 82 72 47 26 10 354
304 297 290 286 287 272 258 242 247 197 244 249 265 266 281 299 231 225 229 224 203 208 221 230 217 228 229 245 236 215 271 287 57 31 293 224 112 79 67 56 42 22 29 14
311 302 290 278 210 241 268 101 113 131 263 244 250 265 273 348 344 230 214 212 223 191 217 224 226 228 212 213 205 239 254 205 144 307 265 76 69 75 107 72 54 46 5 5
309 290 252 252 42 328 131 256 192 205 209 242 239 285 271 337 357 312 345 218 197 206 219 190 218 235 219 232 248 169 126 179 134 110 79 64 58 57 61 61 52 31 346 324
272 270 279 338 325 344 265 240 199 189 228 215 225 219 237 316 342 314 304 303 277 216 226 197 215 225 223 233 235 197 187 179 145 111 103 91 82 78 60 26 1 3 64 67
52 333 274 267 264 233 245 248 201 207 225 211 202 206 202 174 137 195 309 281 316 246 1 211 232 212 191 204 212 204 144 123 111 110 114 96 83 79 31 15 43 87 74 44
240 207 247 268 261 252 228 227 210 212 206 233 191 170 151 161 162 173 201 277 247 305 245 210 205 142 80 83 105 97 99 101 101 98 98 99 86 75 74 38 64 46 60 83
180 241 242 230 225 252 268 307 307 325 332 326 336 197 155 143 140 151 229 230 278 302 281 193 112 125 118 109 109 110 112 109 108 105 100 88 82 71 59 51 337 87 67 76
223 229 246 232 252 279 279 300 308 343 305 321 311 123 20 112 123 171 245 221 275 251 247 59 147 124 117 121 119 117 107 96 94 90 86 80 80 66 16 50 55 108 93 92
232 234 259 240 250 266 274 279 294 321 318 297 325 22 99 12 133 182 193 210 201 273 352 144 136 120 108 95 93 93 92 93 89 87 92 94 101 41 36 50 78 108 126 130
236 244 235 256 266 274 302 293 327 330 5 29 299 119 23 299 270 200 270 21 352 332 326 268 118 116 111 105 99 96 99 103 107 121 138 110 321 159 101 100 111 130 163 145